Weather History for Eagle River, WI

Change the Weather History Date:

Friday, February 15, 2013

  Actual Average Record
Temperature  
Mean Temperature 6 °F -  
Max Temperature 17 °F 25 °F 40 °F (2011)
Min Temperature -4 °F 0 °F -20 °F (2001)
Degree Days  
Heating Degree Days 58    
Moisture  
Dew Point 3 °F    
Average Humidity 76    
Maximum Humidity 92    
Minimum Humidity 57    
Precipitation  
Precipitation 0.00 in - - ()
Sea Level Pressure  
Sea Level Pressure 30.03 in    
Wind  
Wind Speed 7 mph (WNW)    
Max Wind Speed 15 mph    
Max Gust Speed 23 mph    
Visibility 9 miles    
Events Snow    
Averages and records for this station are not official NWS values.
T = Trace of Precipitation, MM = Missing Value Source: NWS Daily Summary

Daily Weather History Graph

Daily Weather History Graph

Search for Another Location

Airport:

Trip Planner

Search our weather history database for the weather conditions in past years. The results will help you decide how hot, cold, wet, or windy it might be!

Date:

Astronomy

Feb. 15, 2013 Rise Set
Actual Time 6:59 AM CST 5:23 PM CST
Civil Twilight 6:28 AM CST 5:54 PM CST
Nautical Twilight 5:53 AM CST 6:29 PM CST
Astronomical Twilight 5:19 AM CST 7:04 PM CST
Moon 9:14 AM CST (2/15) 11:47 PM CST (2/15)
Length of Visible Light 11h 26m
Length of Day
10h 24m
Waxing Crescent, 30% of the Moon is Illuminated
Feb 15
Waxing Crescent
Feb 17
First Quarter
Feb 25
Full
Mar 4
Last Quarter
Mar 11
New

Hourly Weather History & Observations

Time (CST) Temp. Windchill Dew Point Humidity Pressure Visibility Wind Dir Wind Speed Gust Speed Precip Events Conditions
12:15 AM 12.2 °F 2.9 °F 6.8 °F 79% 29.95 in 10.0 mi NW 5.8 mph - N/A   Mostly Cloudy
12:35 AM 12.2 °F 2.9 °F 6.8 °F 79% 29.95 in 10.0 mi NNW 5.8 mph - N/A Snow Light Snow
12:55 AM 12.2 °F 2.9 °F 6.8 °F 79% 29.95 in 10.0 mi NNW 5.8 mph - N/A Snow Light Snow
1:15 AM 12.2 °F 4.3 °F 5.0 °F 73% 29.95 in 10.0 mi NNW 4.6 mph - N/A   Mostly Cloudy
1:35 AM 12.2 °F 6.1 °F 6.8 °F 79% 29.96 in 10.0 mi NW 3.5 mph - N/A   Mostly Cloudy
1:55 AM 12.2 °F 4.3 °F 6.8 °F 79% 29.96 in 10.0 mi WNW 4.6 mph - N/A Snow Light Snow
2:15 AM 12.2 °F 6.1 °F 8.6 °F 85% 29.96 in 10.0 mi WNW 3.5 mph - N/A Snow Light Snow
2:35 AM 12.2 °F 4.3 °F 8.6 °F 85% 29.96 in 10.0 mi NW 4.6 mph - N/A Snow Light Snow
2:55 AM 12.2 °F 4.3 °F 8.6 °F 85% 29.96 in 10.0 mi WNW 4.6 mph - N/A Snow Light Snow
3:15 AM 12.2 °F 4.3 °F 8.6 °F 85% 29.96 in 10.0 mi WNW 4.6 mph - N/A Snow Light Snow
3:35 AM 12.2 °F 6.1 °F 8.6 °F 85% 29.96 in 10.0 mi NW 3.5 mph - N/A   Overcast
3:55 AM 12.2 °F 6.1 °F 8.6 °F 85% 29.96 in 10.0 mi WNW 3.5 mph - N/A   Mostly Cloudy
4:15 AM 12.2 °F 6.1 °F 8.6 °F 85% 29.98 in 10.0 mi WNW 3.5 mph - N/A Snow Light Snow
4:35 AM 5.0 °F -2.1 °F 3.2 °F 92% 29.98 in 10.0 mi West 3.5 mph - N/A Snow Light Snow
4:55 AM 5.0 °F -5.6 °F 1.4 °F 85% 29.99 in 5.0 mi West 5.8 mph - N/A Snow Light Snow
5:15 AM 10.4 °F 0.8 °F 8.6 °F 92% 29.99 in 5.0 mi West 5.8 mph - N/A Snow Light Snow
5:35 AM 10.4 °F 0.8 °F 8.6 °F 92% 30.00 in 3.0 mi West 5.8 mph - N/A Snow Light Snow
5:55 AM 10.4 °F 2.2 °F 8.6 °F 92% 30.00 in 3.0 mi WNW 4.6 mph - N/A Snow Light Snow
6:15 AM 10.4 °F 0.8 °F 8.6 °F 92% 30.00 in 5.0 mi West 5.8 mph - N/A Snow Light Snow
6:35 AM 10.4 °F 2.2 °F 8.6 °F 92% 30.01 in 2.5 mi West 4.6 mph - N/A Snow Light Snow
6:55 AM 10.4 °F 2.2 °F 6.8 °F 85% 30.01 in 1.5 mi West 4.6 mph - N/A Snow Light Snow
7:15 AM 10.4 °F 2.2 °F 8.6 °F 92% 30.01 in 2.5 mi West 4.6 mph - N/A Snow Light Snow
7:35 AM 12.2 °F 4.3 °F 8.6 °F 85% 30.01 in 5.0 mi WNW 4.6 mph - N/A Snow Light Snow
7:55 AM 12.2 °F 1.7 °F 8.6 °F 85% 30.02 in 7.0 mi WNW 6.9 mph - N/A Snow Light Snow
8:15 AM 12.2 °F 1.7 °F 8.6 °F 85% 30.03 in 7.0 mi WNW 6.9 mph - N/A Snow Light Snow
8:55 AM 14.0 °F 2.0 °F 8.6 °F 79% 30.03 in 10.0 mi WNW 9.2 mph - N/A   Overcast
9:15 AM 14.0 °F 2.0 °F 8.6 °F 79% 30.03 in 10.0 mi WNW 9.2 mph - N/A   Overcast
9:35 AM 14.0 °F -0.2 °F 8.6 °F 79% 30.04 in 10.0 mi WNW 12.7 mph - N/A   Overcast
9:55 AM 14.0 °F 0.5 °F 8.6 °F 79% 30.03 in 10.0 mi WNW 11.5 mph - N/A   Mostly Cloudy
10:15 AM 15.8 °F 2.1 °F 8.6 °F 73% 30.03 in 5.0 mi WNW 12.7 mph 19.6 mph N/A Snow Light Snow
10:35 AM 15.8 °F 0.9 °F 8.6 °F 73% 30.03 in 7.0 mi NW 15.0 mph 20.7 mph N/A Snow Light Snow
10:55 AM 15.8 °F 0.9 °F 5.0 °F 62% 30.04 in 10.0 mi NW 15.0 mph 20.7 mph N/A   Mostly Cloudy
11:15 AM 17.6 °F 5.0 °F 5.0 °F 58% 30.04 in 7.0 mi WNW 11.5 mph - N/A   Mostly Cloudy
11:35 AM 15.8 °F 0.9 °F 5.0 °F 62% 30.04 in 10.0 mi NW 15.0 mph 19.6 mph N/A   Mostly Cloudy
11:55 AM 15.8 °F 5.1 °F 5.0 °F 62% 30.03 in 10.0 mi NW 8.1 mph - N/A   Mostly Cloudy
12:15 PM 15.8 °F 1.4 °F 3.2 °F 58% 30.03 in 10.0 mi West 13.8 mph - N/A   Overcast
12:35 PM 15.8 °F 2.1 °F 3.2 °F 58% 30.03 in 10.0 mi West 12.7 mph 19.6 mph N/A   Overcast
12:55 PM 14.0 °F -0.2 °F 3.2 °F 62% 30.03 in 10.0 mi WNW 12.7 mph - N/A   Overcast
1:15 PM 14.0 °F 0.5 °F 5.0 °F 67% 30.03 in 5.0 mi NW 11.5 mph - N/A Snow Light Snow
1:35 PM 15.8 °F 3.4 °F 3.2 °F 58% 30.03 in 10.0 mi NW 10.4 mph 16.1 mph N/A   Overcast
1:55 PM 14.0 °F 0.5 °F 3.2 °F 62% 30.03 in 10.0 mi NW 11.5 mph 16.1 mph N/A   Overcast
2:15 PM 14.0 °F -0.2 °F 3.2 °F 62% 30.03 in 10.0 mi NW 12.7 mph - N/A   Overcast
2:35 PM 14.0 °F 2.0 °F 3.2 °F 62% 30.04 in 10.0 mi WNW 9.2 mph - N/A   Overcast
2:55 PM 14.0 °F -0.8 °F 3.2 °F 62% 30.05 in 7.0 mi NNW 13.8 mph 18.4 mph N/A   Overcast
3:15 PM 14.0 °F 0.5 °F 1.4 °F 57% 30.05 in 10.0 mi NW 11.5 mph - N/A   Overcast
3:35 PM 14.0 °F 0.5 °F 1.4 °F 57% 30.06 in 10.0 mi NNW 11.5 mph 17.3 mph N/A   Overcast
3:55 PM 12.2 °F -1.8 °F 1.4 °F 62% 30.07 in 7.0 mi NW 11.5 mph 23.0 mph N/A   Overcast
4:15 PM 10.4 °F -4.8 °F 1.4 °F 67% 30.08 in 7.0 mi NNW 12.7 mph - N/A   Overcast
4:35 PM 10.4 °F -4.1 °F -0.4 °F 62% 30.08 in 10.0 mi NW 11.5 mph - N/A   Mostly Cloudy
4:55 PM 8.6 °F -3.7 °F -2.2 °F 62% 30.09 in 10.0 mi NW 8.1 mph - N/A   Scattered Clouds
5:15 PM 8.6 °F -3.7 °F -0.4 °F 67% 30.09 in 10.0 mi WNW 8.1 mph - N/A   Scattered Clouds
5:35 PM 8.6 °F -2.6 °F -0.4 °F 67% 30.10 in 10.0 mi WNW 6.9 mph - N/A   Scattered Clouds
5:55 PM 6.8 °F -2.0 °F -0.4 °F 72% 30.10 in 10.0 mi WNW 4.6 mph - N/A   Clear
6:15 PM 6.8 °F -0.1 °F -0.4 °F 72% 30.10 in 10.0 mi WNW 3.5 mph - N/A   Mostly Cloudy
6:35 PM 5.0 °F -4.1 °F -0.4 °F 78% 30.10 in 10.0 mi WNW 4.6 mph - N/A   Overcast
6:55 PM 5.0 °F -2.1 °F -0.4 °F 78% 30.10 in 10.0 mi WNW 3.5 mph - N/A   Scattered Clouds
7:15 PM 3.2 °F - -4.0 °F 72% 30.10 in 10.0 mi Calm Calm - N/A   Scattered Clouds
7:35 PM 1.4 °F -6.2 °F -4.0 °F 78% 30.09 in 10.0 mi WSW 3.5 mph - N/A   Mostly Cloudy
7:55 PM -4.0 °F -14.6 °F -7.6 °F 85% 30.09 in 10.0 mi West 4.6 mph - N/A   Mostly Cloudy
8:15 PM -2.2 °F -10.4 °F -5.8 °F 85% 30.09 in 10.0 mi West 3.5 mph - N/A   Overcast
8:35 PM -2.2 °F -10.4 °F -5.8 °F 85% 30.09 in 10.0 mi West 3.5 mph - N/A   Overcast
8:55 PM -0.4 °F -8.3 °F -5.8 °F 78% 30.09 in 10.0 mi West 3.5 mph - N/A   Overcast
9:15 PM 1.4 °F -8.3 °F -4.0 °F 78% 30.08 in 10.0 mi West 4.6 mph - N/A   Overcast
9:35 PM -0.4 °F -8.3 °F -5.8 °F 78% 30.08 in 10.0 mi West 3.5 mph - N/A   Overcast
9:55 PM -0.4 °F -8.3 °F -5.8 °F 78% 30.07 in 10.0 mi WSW 3.5 mph - N/A   Overcast
10:15 PM 1.4 °F -8.3 °F -4.0 °F 78% 30.07 in 10.0 mi West 4.6 mph - N/A   Overcast
10:35 PM 3.2 °F -7.8 °F -0.4 °F 85% 30.06 in 10.0 mi West 5.8 mph - N/A   Overcast
10:55 PM 3.2 °F -7.8 °F -0.4 °F 85% 30.07 in 10.0 mi WNW 5.8 mph - N/A   Overcast
11:15 PM 3.2 °F -6.2 °F -0.4 °F 85% 30.06 in 10.0 mi WNW 4.6 mph - N/A   Overcast
11:35 PM 3.2 °F -6.2 °F -0.4 °F 85% 30.06 in 10.0 mi West 4.6 mph - N/A   Mostly Cloudy
11:55 PM 3.2 °F -9.1 °F -0.4 °F 85% 30.05 in 10.0 mi West 6.9 mph - N/A   Mostly Cloudy